Hourly Data Report for October 24, 2016

All times are specified in Local Standard Time (LST). Add 1 hour to adjust for Daylight Saving Time where and when it is observed.

RESOLUTE BAY A
NUNAVUT

74°43'01.000" N
94°58'10.000" W
67.70 m
2403498
71924
YRB

Download Data

Hourly Data (October 2016)
Hourly Data Report for October 24, 2016
Temp Definition
°C
Dew Point Temp Definition
°C
Rel Hum Definition
%
Wind Dir Definition
10's deg

Wind Spd Definition
km/h
Visibility Definition
km
Stn Press Definition
kPa
Hmdx Definition


Wind Chill Definition


Weather Definition


TIME
00:00 Legend Double Dagger -8.1 -9.8 88 25 8 24.1 101.93   -12 Snow
01:00 Legend Double Dagger -8.3 -9.7 90 25 14 24.1 101.94   -14 LegendNANA
02:00 Legend Double Dagger -7.4 -8.5 92 25 13 24.1 101.94   -13 Snow
03:00 Legend Double Dagger -7.7 -8.6 93 29 15 0.8 101.98   -14 Freezing Fog
04:00 Legend Double Dagger -8.6 -10.0 90 30 21 6.4 102.00   -16 Snow,Fog
05:00 Legend Double Dagger -9.4 -10.9 89 31 26 24.1 102.01   -18 Snow
06:00 Legend Double Dagger -9.4 -10.8 90 29 18 24.1 102.04   -17 Snow
07:00 Legend Double Dagger -10.2 -12.0 87 30 21 24.1 102.03   -18 LegendNANA
08:00 Legend Double Dagger -12.3 -14.3 85 30 18 24.1 102.04   -20 LegendNANA
09:00 Legend Double Dagger -13.0 -15.2 84 34 13 24.1 102.05   -20 Mostly Cloudy
10:00 Legend Double Dagger -13.9 -16.3 82 30 9 24.1 102.03   -20 Snow
11:00 Legend Double Dagger -12.5 -14.8 83 36 1 24.1 102.02   -13 LegendNANA
12:00 Legend Double Dagger -11.9 -14.2 83 17 9 24.1 101.96   -17 Mostly Cloudy
13:00 Legend Double Dagger -9.9 -12.3 83 25 18 12.9 101.96   -17 Snow
14:00 Legend Double Dagger -9.7 -12.7 79 24 21 12.9 101.95   -18 Snow
15:00 Legend Double Dagger -9.0 -11.1 85 22 23 12.9 101.89   -17 Snow
16:00 Legend Double Dagger -8.4 -10.6 84 23 30 3.2 101.80   -17 Snow,Fog
17:00 Legend Double Dagger -8.0 -9.8 87 24 37 4.0 101.74   -18 Snow,Fog
18:00 Legend Double Dagger -8.2 -9.9 88 24 34 16.1 101.67   -18 Snow,Blowing Snow
19:00 Legend Double Dagger -7.9 -9.4 89 25 33 9.7 101.60   -17 Snow,Blowing Snow
20:00 Legend Double Dagger -7.6 -9.0 90 25 34 6.4 101.54   -17 Snow,Blowing Snow
21:00 Legend Double Dagger -7.4 -8.9 89 26 34 2.4 101.49   -17 Snow,Blowing Snow
22:00 Legend Double Dagger -7.5 -9.0 89 25 27 8.1 101.43   -16 Snow,Blowing Snow
23:00 Legend Double Dagger -7.5 -9.0 89 26 32 4.8 101.37   -17 Snow,Blowing Snow

Notes on Data Quality.

Legend

  • E = Estimated
  • M = Missing
  • NA = Not Available
  • ‡ = Partner data that is not subject to review by the National Climate Archives
Date modified: